Voltar ao catálogo

NAVSTAR 84

USA 545

AtivoNavegaçãoHEO
NORAD 64202·PAYLOAD·🇺🇸 United States

Lançado May 30, 2025 de Cape Canaveral Space Force Station

Loading…

Próximas Passagens (próximas 24 horas)

TLE

AtualizadoSource: CelesTrak SupGP

Época: Sep 16, 2026, 16:44 UTC

1 64202C 25116A   26259.69756944  .00000000  00000+0  00000+0 0  2590
2 64202  55.2936  27.4551 0009042 334.9535 294.8238  2.00569475    12

Acompanhe NAVSTAR 84 em tempo real com AllMySat

Download on the App Store